[[{"header":{"parameterUnit":"m.s-1","parameterCategory":1,"la1":30.2991,"la2":30.254,"lo1":-89.0895,"lo2":-89.0444,"dy":0.0017,"dx":0.0017,"nx":28,"ny":28,"refTime":"2024-07-09T03:00:00:Z","depth":0,"parameterNumber":2,"parameterNumberName":"U-component_of_WINDS"},"data":[0,0,0,0,0,0,0,0,0,0,0,0,0,0,0,0,0,0,0,0,0,0,0,0,0,0,0,0,0,0,0,0,0,0,0,0,0,0,0,0,0,0,0,0,0,0,0,0,0,0,0,0,0,0,0,0,0,0,4.7516,4.7517,0,4.7613,4.7614,4.7615,4.7597,4.7596,4.7594,4.7592,4.7692,4.7696,4.77,0,0,0,0,0,0,0,0,0,0,0,0,0,4.7315,4.7319,4.7516,4.7517,4.7518,4.7613,4.7614,4.7616,4.7598,4.7596,4.7593,4.7591,4.7691,4.7696,4.7701,0,0,0,0,0,0,0,0,0,0,0,0,0,4.7407,4.732,4.7516,4.7521,4.7522,4.7613,4.7614,4.7616,4.7598,4.7595,4.7593,4.759,4.7689,4.7695,4.7702,4.7793,0,0,4.7721,4.7724,0,0,0,0,0,0,0,0,4.7401,4.7414,4.7519,4.7521,4.7522,4.759,4.758,4.7676,4.7599,4.7569,4.7592,4.7589,4.766,4.7669,4.7693,4.7798,4.7802,4.7722,4.7726,4.7728,4.773,0,0,0,0,0,0,0,4.7395,4.741,4.7554,4.752,4.7523,4.7518,4.7529,4.7598,4.7628,4.7572,4.7571,4.7582,4.7661,4.7687,4.7695,4.7804,4.7721,4.7727,4.7731,4.7734,4.7989,4.7992,0,0,0,0,0,0,4.7387,4.7405,4.7551,4.7557,4.7454,4.7524,4.7535,4.7571,4.7627,4.7634,4.7584,4.7581,4.7677,4.7688,4.7699,4.7809,4.7728,4.7734,4.7738,4.7986,4.799,4.7993,0,0,0,0,0,0,4.7383,4.74,4.7547,4.7481,4.7499,4.753,4.7571,4.7575,4.76,4.7637,4.7642,4.7605,4.7675,4.769,4.777,4.7813,4.7737,4.7743,4.7983,4.7987,4.7991,4.8032,0,0,0,0,0,0,4.7377,4.7399,4.7434,4.7482,4.7503,4.7617,4.7573,4.7578,4.7612,4.7608,4.7658,4.7664,4.7675,4.776,4.7776,4.782,4.7748,4.7979,4.7985,4.799,4.8027,4.8037,4.8046,0,0,0,0,0,4.737,4.7441,4.7436,4.7453,4.7547,4.7619,4.7631,4.7642,4.7615,4.765,4.7674,4.7662,4.7806,4.7769,4.7786,4.7833,4.7976,4.7983,4.799,4.8022,4.8035,4.8046,0,0,0,0,0,0,4.7397,4.7447,4.7442,4.7531,4.7571,4.7616,4.7661,4.7655,4.7704,4.7698,4.771,4.7721,4.7803,4.7826,4.7784,4.7925,4.7887,4.7898,4.7906,4.7918,4.7928,4.792,4.7753,0,0,0,0,0,4.7414,4.7468,4.7509,4.7584,4.7604,4.7629,4.7661,4.7666,4.7708,4.7725,4.7755,4.7796,4.7851,4.7886,4.7938,4.8031,4.8041,4.8072,4.8081,4.8089,4.8097,4.8148,4.8161,4.8015,4.8015,4.8015,0,0,4.7448,4.7482,4.7516,4.759,4.7622,4.7678,4.7644,4.7704,4.7746,4.7734,4.7812,4.7835,4.7882,4.7969,4.8009,4.7991,4.814,4.8097,4.8103,4.8107,4.8156,4.817,4.8182,4.8019,4.8018,4.8018,0,0,4.7538,4.757,4.7635,4.7668,4.7717,4.7733,4.7749,4.7796,4.7811,4.7889,4.7881,4.7932,4.8025,4.8059,4.8089,4.8194,4.8185,4.8211,4.826,4.8309,4.8321,4.8331,4.8368,4.8381,4.822,4.822,4.822,0,4.7574,4.7658,4.767,4.7732,4.7764,4.7757,4.7823,4.7855,4.7918,4.7941,4.7921,4.8038,4.8069,4.8164,4.819,4.8214,4.8233,4.8204,4.8318,4.8329,4.8339,4.8374,4.8388,4.8223,4.8222,4.8222,4.8222,0,4.77,4.7759,4.7806,4.7867,4.7906,4.797,4.7991,4.8029,4.8031,4.805,4.813,4.8167,4.8227,4.825,4.8253,4.8346,4.8333,4.8316,4.8278,4.8355,4.8388,4.8402,4.8226,4.8225,4.8225,4.8224,0,0,4.7808,4.7876,4.7893,4.7921,4.7975,4.8021,4.8085,4.8144,4.8176,4.822,4.8274,4.8354,4.8339,4.8372,4.8379,4.8422,4.8503,4.84,4.8401,4.8416,4.8607,4.8618,4.8634,4.8498,4.8501,4.8503,4.8602,0,4.7903,4.8016,4.8028,4.8129,4.8183,4.8178,4.8234,4.8273,4.8293,4.8342,4.8364,4.842,4.8396,4.8416,4.8459,4.8484,4.8541,4.8477,4.8547,4.855,4.8534,4.8651,4.8664,4.8756,4.8616,4.8618,4.862,0,4.8028,4.8076,4.8182,4.8229,4.8253,4.8302,4.8357,4.8405,4.845,4.8461,4.85,4.8501,4.8567,4.8529,4.862,4.8577,4.8607,4.8623,4.8627,4.8633,4.8588,4.8659,4.8786,4.8799,4.864,4.8639,4.8637,0,4.8095,4.8187,4.8262,4.8286,4.8344,4.8379,4.8404,4.8447,4.8481,4.853,4.8552,4.8608,4.8638,4.8682,4.8698,4.8668,4.8789,4.8751,4.88,4.8799,4.8824,4.8822,4.8956,4.8846,4.8846,4.8845,4.8845,0,4.8199,4.8263,4.8293,4.8339,4.8412,4.8426,4.8498,4.8522,4.856,4.8611,4.861,4.8658,4.8678,4.8729,4.8743,4.8816,4.883,4.8841,4.8844,4.884,4.8839,4.8859,4.8852,4.8849,4.8848,4.8847,4.8847,0,4.8285,4.8307,4.8389,4.8437,4.845,4.8502,4.8543,4.8588,4.8608,4.8672,4.8688,4.8719,4.878,4.8801,4.8874,4.8884,4.8969,4.8967,4.8953,4.8953,4.9,4.8995,4.915,4.9171,4.9049,4.905,4.9051,0,4.8348,4.8398,4.8452,4.8486,4.8513,4.8568,4.8603,4.862,4.8657,4.8713,4.8751,4.8811,4.8859,4.8956,4.8986,4.9042,4.904,4.9091,4.9048,4.9044,4.904,4.9036,4.9041,4.9098,4.9099,4.91,4.9101,0,4.8459,4.8468,4.8519,4.8575,4.8617,4.8662,4.8705,4.8733,4.8756,4.8798,4.886,4.8898,4.8973,4.9032,4.909,4.9117,4.9113,4.9115,4.9129,4.9125,4.9114,4.912,4.8973,4.9111,4.911,4.9109,4.9108,4.9108,4.8535,4.8579,4.8623,4.8681,4.8715,4.8756,4.88,4.8826,4.8878,4.894,4.8948,4.9014,4.9059,4.9136,4.9165,4.9218,4.9204,4.9224,4.9229,4.9233,4.9236,4.9108,4.9228,4.9228,4.9228,4.9228,4.9228,0,4.8644,4.8673,4.8725,4.8786,4.8831,4.8825,4.8873,4.8911,4.8969,4.9011,4.906,4.9131,4.9189,4.9224,4.9282,4.9317,4.9317,4.9332,4.9328,4.9335,4.9246,4.9227,4.9331,4.9331,4.9331,4.9331,4.9331,4.9331,4.8706,4.878,4.8794,4.8886,4.8914,4.8979,4.9007,4.9045,4.9078,4.9158,4.9206,4.9229,4.9268,4.9329,4.9383,4.9391,4.9412,4.9428,4.9435,4.9352,4.9341,4.9331,4.9313,4.9433,4.9433,4.952,4.952,4.9521]},{"header":{"parameterUnit":"m.s-1","parameterCategory":1,"la1":30.2991,"la2":30.254,"lo1":-89.0895,"lo2":-89.0444,"dy":0.0017,"dx":0.0017,"nx":28,"ny":28,"refTime":"2024-07-09T03:00:00:Z","depth":0,"parameterNumber":3,"parameterNumberName":"V-component_of_WINDS"},"data":[0,0,0,0,0,0,0,0,0,0,0,0,0,0,0,0,0,0,0,0,0,0,0,0,0,0,0,0,0,0,0,0,0,0,0,0,0,0,0,0,0,0,0,0,0,0,0,0,0,0,0,0,0,0,0,0,0,0,5.8221,5.8223,0,5.8393,5.8395,5.8397,5.8428,5.8427,5.8425,5.8424,5.8595,5.86,5.8606,0,0,0,0,0,0,0,0,0,0,0,0,0,5.7913,5.7919,5.8221,5.8223,5.8225,5.8393,5.8396,5.8398,5.8428,5.8426,5.8425,5.8423,5.8593,5.86,5.8607,0,0,0,0,0,0,0,0,0,0,0,0,0,5.8062,5.7921,5.8221,5.8261,5.8266,5.8393,5.8396,5.8398,5.8429,5.8426,5.8424,5.8422,5.8591,5.8599,5.8608,5.8705,0,0,5.8635,5.8639,0,0,0,0,0,0,0,0,5.8054,5.8074,5.8253,5.8258,5.8265,5.8387,5.835,5.8501,5.8429,5.8367,5.8424,5.8421,5.8527,5.8541,5.8578,5.8713,5.872,5.8635,5.8641,5.8645,5.8647,0,0,0,0,0,0,0,5.8043,5.8066,5.8289,5.8255,5.8263,5.8269,5.8288,5.8379,5.8456,5.8372,5.8375,5.8395,5.853,5.8569,5.8582,5.8723,5.8635,5.8643,5.8649,5.8652,5.8946,5.8948,0,0,0,0,0,0,5.8027,5.8057,5.8284,5.8294,5.8152,5.8276,5.8297,5.835,5.8456,5.847,5.8397,5.8396,5.8555,5.8572,5.8588,5.8709,5.8645,5.8653,5.8658,5.8944,5.8947,5.8949,0,0,0,0,0,0,5.802,5.8047,5.8277,5.8177,5.8207,5.8284,5.8343,5.8354,5.8394,5.8474,5.8488,5.8423,5.8554,5.8576,5.8676,5.8716,5.8657,5.8665,5.8941,5.8945,5.8948,5.8952,0,0,0,0,0,0,5.8011,5.8044,5.8083,5.8177,5.8212,5.8363,5.8345,5.8359,5.841,5.841,5.8503,5.8516,5.8554,5.8663,5.8685,5.8727,5.8672,5.8937,5.8942,5.8947,5.8948,5.8955,5.8961,0,0,0,0,0,5.8,5.8075,5.8085,5.8112,5.8262,5.8365,5.8385,5.8429,5.8413,5.8452,5.8503,5.8513,5.8708,5.8673,5.8698,5.8743,5.8935,5.8941,5.8946,5.8946,5.8954,5.8961,0,0,0,0,0,0,5.7981,5.8089,5.81,5.8209,5.8278,5.837,5.8421,5.8436,5.851,5.8507,5.8557,5.8578,5.8676,5.8719,5.8678,5.8842,5.882,5.8831,5.8811,5.8819,5.8825,5.8813,5.8679,0,0,0,0,0,5.799,5.8067,5.8156,5.8243,5.8277,5.8343,5.839,5.8418,5.8491,5.852,5.8579,5.8648,5.8725,5.8774,5.8849,5.8955,5.8975,5.8998,5.9004,5.9009,5.9018,5.9077,5.9089,5.8968,5.8968,5.8968,0,0,5.8008,5.8077,5.8122,5.8241,5.8298,5.8375,5.8367,5.8449,5.8506,5.8532,5.8631,5.8676,5.8757,5.886,5.8909,5.8899,5.9056,5.9016,5.9019,5.9026,5.9084,5.9096,5.9106,5.8972,5.8971,5.8971,0,0,5.8082,5.8141,5.8221,5.8279,5.8366,5.8409,5.8428,5.8519,5.8551,5.8652,5.8673,5.8741,5.8872,5.8929,5.8974,5.907,5.9082,5.9093,5.9126,5.9183,5.9192,5.9201,5.9236,5.9247,5.9101,5.9101,5.9101,0,5.8093,5.8212,5.8259,5.8341,5.8393,5.8421,5.8502,5.8555,5.8661,5.8696,5.8684,5.8851,5.8906,5.9024,5.9047,5.9083,5.9106,5.9083,5.9188,5.9197,5.9206,5.9239,5.9252,5.9102,5.9102,5.9102,5.9102,0,5.8222,5.8304,5.8357,5.8462,5.852,5.86,5.8658,5.8711,5.8734,5.8778,5.888,5.8948,5.9038,5.9068,5.909,5.9189,5.9181,5.9178,5.9156,5.9217,5.9249,5.9263,5.9103,5.9103,5.9103,5.9103,0,0,5.8288,5.8419,5.8438,5.8486,5.8585,5.8648,5.8729,5.8819,5.8863,5.8935,5.9004,5.9115,5.9114,5.9166,5.9195,5.9245,5.9317,5.9237,5.9239,5.925,5.943,5.9432,5.9447,5.9326,5.9328,5.933,5.9424,0,5.8373,5.8522,5.8567,5.8691,5.8767,5.8795,5.8866,5.8934,5.8977,5.9047,5.9093,5.9172,5.9164,5.9195,5.9246,5.9298,5.9354,5.9292,5.939,5.9392,5.9369,5.9464,5.9466,5.9551,5.9437,5.9439,5.9441,0,5.8493,5.857,5.8702,5.8792,5.8825,5.8888,5.8975,5.9041,5.9118,5.9146,5.9205,5.923,5.9315,5.9288,5.9406,5.9362,5.9405,5.9436,5.944,5.9451,5.942,5.9478,5.9579,5.9592,5.9461,5.9459,5.9458,0,5.8528,5.8665,5.8762,5.8802,5.8909,5.8953,5.8999,5.9074,5.9125,5.92,5.9234,5.9317,5.9362,5.9425,5.9471,5.9448,5.9585,5.9562,5.961,5.9609,5.9638,5.9635,5.9748,5.9664,5.9664,5.9664,5.9663,0,5.8619,5.8699,5.878,5.8839,5.8929,5.898,5.9067,5.9114,5.9181,5.9249,5.9278,5.9341,5.9398,5.9469,5.9505,5.9597,5.9617,5.9641,5.965,5.9639,5.9636,5.9668,5.9664,5.9667,5.9666,5.9666,5.9665,0,5.8675,5.8732,5.884,5.8933,5.8958,5.902,5.9099,5.9158,5.9202,5.9289,5.9311,5.9381,5.9466,5.9519,5.9625,5.965,5.9751,5.9757,5.9726,5.973,5.9775,5.9771,5.9913,5.9934,5.9835,5.9836,5.9837,0,5.8729,5.8792,5.8892,5.8941,5.8989,5.9067,5.912,5.9172,5.9226,5.9319,5.9366,5.9453,5.9525,5.9658,5.9718,5.9799,5.9808,5.9853,5.9821,5.9808,5.981,5.9806,5.9813,5.9858,5.9859,5.9859,5.986,0,5.882,5.8846,5.8923,5.901,5.9073,5.9144,5.9214,5.9251,5.9315,5.9374,5.9462,5.9519,5.9629,5.9715,5.9802,5.9848,5.9865,5.987,5.9885,5.9875,5.9855,5.9867,5.9741,5.9866,5.9865,5.9865,5.9865,5.9864,5.8878,5.8935,5.9015,5.91,5.9159,5.9224,5.9284,5.9337,5.9412,5.9507,5.9532,5.9625,5.97,5.9819,5.9867,5.9939,5.9933,5.9955,5.9961,5.9965,5.9967,5.9843,5.9955,5.9954,5.9954,5.9954,5.9954,0,5.8971,5.9024,5.9102,5.92,5.9267,5.9279,5.9357,5.9411,5.9493,5.9562,5.9634,5.9735,5.9819,5.9885,5.997,6.0015,6.0025,6.0036,6.0033,6.0044,5.9967,5.9946,6.0027,6.0027,6.0027,6.0027,6.0027,6.0026,5.9027,5.9125,5.916,5.9287,5.9339,5.9432,5.9476,5.9536,5.9592,5.9704,5.9775,5.9818,5.9886,5.9977,6.0054,6.0071,6.0102,6.0111,6.013,6.0057,6.0049,6.0041,6.0022,6.0117,6.0117,6.0201,6.0202,6.0202]}]]